Погода в Серебряных Прудах

Россия / Московская область     54°28′26″N   38°43′29″E
темп.,
°C
ветер,
м/с
пор.,
м/с
влажн.,
%
обл.,
%
осадки,
мм/ч
давл.,
гПа
погр.,
м
7 марта, вс
вс700:00−13зюз45870 0.0 101570
03:00−12юз510920 0.0 1013186
06:00−10юз7158761 0.0 1009384
09:00−8юз10188681 0.0 1005702
12:00−5юз111891100 0.2 10001098
15:00−2юз111793100 1.1 9961247
18:00−4ссз91489100 1.9 995693
21:00−7зюз4993100 2.1 996235
8 марта, пн
пн800:00−6з6138698 0.1 998604
03:00−8зюз7149381 0.1 998458
06:00−8зюз6129199 0.0 997414
09:00−7з7129099 0.1 998782
12:00−5з8127799 0.1 9991503
15:00−6зсз71082100 0.3 10011154
18:00−7зсз4891100 0.1 1004250
21:00−10сз479191 0.4 1007172
9 марта, вт
вт900:00−13ссз469436 0.0 1010108
03:00−16сз349619 0.0 101278
06:00−18сз469733 0.0 101497
09:00−17ссз489444 0.0 1016289
12:00−13ссз468977 0.0 1016496
15:00−11сз478687 0.0 1018698
18:00−15ссз349194 0.0 101864
21:00−18ссз449262 0.0 102175
10 марта, ср
ср1000:00−21ссз34972 0.0 102236
03:00−23сз34965 0.0 102436
06:00−25сз33950 0.0 102525
09:00−22сз239517 0.0 1026130
12:00−17ссз238257 0.0 1027377
15:00−15ссз127532 0.0 1026428
18:00−20в11880 0.0 102620
21:00−21ю12890 0.0 102720
11 марта, чт
чт1100:00−22ююв23877 0.0 102720
03:00−22ююв348635 0.0 102755
06:00−19ююв489099 0.0 1025190
09:00−15ююв6109499 0.1 1024344
12:00−11ююв71193100 0.3 1022450
15:00−6ююз71194100 0.7 1020670
18:00−6ююз61291100 0.4 1019538
21:00−7ююз61390100 0.4 1018401